Tracking 17558 objects as of 9-February-2016
HD Live streaming from Space Station
objects crossing your sky now

NAVSTAR 37 (USA 117)

Track NAVSTAR 37 (USA 117) now!
NAVSTAR 37 (USA 117) is classified as:


NORAD ID: 23833
Int'l Code: 1996-019A
Perigee: 20,701.0 km
Apogee: 20,754.1 km
Inclination: 54.2 °
Period: 739.9 minutes
Semi major axis: 27098 km
RCS: 4.1981 m2 (large)
Launch date: March 28, 1996
Source: United States (US)
Launch site: AIR FORCE EASTERN TEST RANGE (AFETR)
PRN:
Your satellite tracking list
Your tracking list is empty





NASA's NSSDC Master Catalog

Two Line Element Set (TLE):
1 23833U 96019A   16039.50829404 -.00000016  00000-0  00000+0 0  9992
2 23833  54.1772  51.7534 0009810 285.0644 225.1755  1.9461834714532
Source of the keplerian elements: AFSPC

N2YO: 1072